EUTELSAT HOTBIRD 13B

Last updated on Thu Jul 03 2025 00:02:44 GMT+0000 (Coordinated Universal Time)

1 29270U 06032A 25183.57318120 .00000163 00000+0 00000+0 0 9995 2 29270 0.7575 86.1129 0004292 11.0822 63.0696 1.00272548 43808
UTC large
Height (km)
Speed (km/s)
/
Latitude / Longitude
Inclination (degrees)
Orbital Period (minutes)
Azimuth
Elevation
Range (km)
Doppler Factor

Next 0 passes for location: London (51.5072 / 0.1276)

Sorry there are no passes over London.